Terug naar catalogus

STARLINK-2432

ActiefCommunicatieVLEO
NORAD 47840·PAYLOAD·🇺🇸 United States

Gelanceerd Mar 11, 2021 vanaf Cape Canaveral Space Force Station

Loading…

Volgende Passages (komende 24 uur)

TLE

VersSource: CelesTrak SupGP

Epoch: Sep 14, 2026, 20:37 UTC

1 47840C 21018BF  26257.85951389  .00018606  00000+0  59836-3 0  2576
2 47840  53.1585  78.8626 0001095  84.2627   5.4099 15.31690878    19

Volg STARLINK-2432 in realtime met AllMySat

Download on the App Store